Temp
6 5 5 4 4 4 6 4 5 3 5 7 9 11 13 12 12 12 12 12 11 10 10 11 11 12 12 14 13 13 13 11 11 14 16 15 15 14 15 14 15 16 13 10
5 5 4 3 4 6 5 4 4 3 5 7 8 11 12 13 12 13 12 11 10 10 8 9 8 11 12 12 13 13 12 11 14 15 15 15 14 13 13 13 14 13 13 9
3 3 3 3 3 4 6 4 5 4 5 7 11 11 11 11 13 12 11 10 10 9 7 6 7 10 12 11 12 11 10 12 11 12 9 10 10 11 14 13 13 11 9 6
3 4 4 4 3 4 5 4 6 7 6 7 9 11 12 11 11 12 12 10 11 10 8 9 8 10 12 12 11 12 11 10 9 10 9 9 7 8 9 9 9 10 7 6
3 3 3 3 3 5 6 5 6 8 10 10 11 11 12 12 11 11 11 11 11 11 11 12 10 10 12 13 13 12 11 11 10 10 9 9 7 7 8 8 7 6 7 5
2 2 2 3 4 4 6 5 6 10 9 10 12 12 12 12 11 11 13 12 11 11 12 12 12 12 12 12 12 12 11 10 12 11 9 10 9 6 7 7 8 9 9 5
3 3 3 4 4 4 4 5 9 11 10 12 12 12 12 11 11 11 11 11 12 10 10 10 10 10 11 11 12 12 12 11 11 12 10 11 7 6 6 6 6 7 5 4
3 4 4 5 4 5 5 5 10 12 11 12 11 12 12 11 11 11 10 9 10 9 11 12 12 12 12 12 12 12 12 11 12 12 12 8 7 8 7 7 6 6 6 5
3 4 5 5 6 6 5 5 5 13 12 12 12 11 11 11 11 10 8 8 8 10 12 12 13 12 14 12 12 12 11 11 10 12 12 11 9 7 6 8 8 6 6 6
4 4 5 5 6 7 6 5 6 10 9 8 11 11 10 11 11 10 9 9 9 9 11 12 12 13 13 12 12 11 12 11 11 11 11 9 7 6 7 8 7 5 5 6
3 4 5 6 6 7 8 5 8 10 9 7 9 9 9 9 11 10 8 9 9 9 11 12 11 12 11 11 11 11 11 11 11 11 10 10 5 6 8 6 6 6 5 5
4 4 5 6 6 8 7 7 5 7 9 7 5 5 5 8 9 9 7 9 9 10 11 11 11 10 10 12 9 10 10 10 11 8 7 5 5 5 6 7 6 5 5 4
4 4 5 6 7 8 8 5 6 9 8 9 9 7 6 7 6 7 9 8 8 8 9 10 10 11 12 11 11 10 8 9 8 7 4 5 4 4 5 5 5 5 4 3
3 4 5 6 7 7 8 5 6 7 10 8 7 6 6 6 7 7 8 7 7 8 10 10 11 11 10 11 11 11 10 9 7 5 4 4 5 5 4 3 4 3 2 2
4 4 5 6 6 7 7 7 5 6 10 8 7 7 6 6 7 7 7 8 9 10 10 10 10 10 11 9 10 10 9 8 8 8 5 6 5 4 4 3 2 2 1 1
3 4 4 5 6 7 7 4 6 6 8 9 8 6 8 7 7 7 8 8 8 9 10 10 10 8 10 10 10 8 8 8 7 6 6 5 4 4 3 3 2 1 1 -0
3 4 4 5 6 6 5 5 4 6 7 8 7 7 8 8 8 7 8 7 8 10 9 10 10 9 10 9 9 7 7 7 6 6 4 3 3 3 3 2 1 -0 -1 -1
3 3 4 5 5 4 4 3 5 6 6 9 7 6 8 7 8 7 7 8 9 8 9 9 10 9 9 9 8 8 7 6 6 6 6 5 4 3 2 0 -0 -0 -0 -2
3 4 5 5 4 4 4 4 5 6 7 7 7 7 7 7 7 7 7 8 7 7 8 9 9 9 8 10 9 8 7 6 6 5 5 4 3 2 1 1 1 0 -1 -2
4 4 4 3 2 3 4 5 6 6 5 6 6 7 6 8 7 7 7 7 8 8 8 8 8 9 8 8 9 8 7 7 6 5 4 4 3 2 2 1 1 0 -1 -2
3 2 2 1 3 4 5 4 5 5 6 6 6 7 6 6 7 7 7 7 7 8 8 7 8 9 8 7 8 8 7 6 6 7 6 5 4 3 2 1 -0 -1 -3 -3
3 2 2 3 4 4 5 5 4 6 7 5 6 7 7 5 7 8 6 6 6 7 7 6 7 9 7 7 7 7 6 6 6 5 4 3 3 2 1 0 -1 -2 -4 -6
2 3 2 4 3 4 5 4 5 5 4 4 5 5 6 5 7 5 7 6 6 6 6 7 9 7 6 6 7 6 5 5 4 4 3 2 1 1 -0 -2 -3 -6 -7 -9
3 3 3 4 3 5 5 6 6 3 4 4 6 4 7 5 5 4 6 4 6 6 6 8 9 5 4 5 5 5 3 2 2 1 1 -1 -2 -3 -4 -6 -7 -7 -9 -9
2 3 3 3 3 3 3 3 3 3 5 5 5 6 7 5 4 5 5 5 6 7 8 8 6 2 2 2 2 1 0 -1 -1 -2 -3 -5 -6 -6 -7 -7 -8 -8 -8 -10
2 2 3 2 4 3 3 3 3 3 5 5 7 6 6 5 6 6 6 7 7 8 7 6 4 1 1 1 -0 -1 -1 -2 -3 -3 -5 -6 -7 -7 -7 -9 -9 -9 -9 -9
2 2 1 2 3 3 3 3 3 3 5 6 6 6 5 5 6 6 6 7 7 7 5 3 1 -0 -0 -1 -2 -4 -4 -4 -4 -5 -5 -6 -7 -9 -9 -9 -10 -10 -9 -9
Height
627 636 649 661 677 692 707 724 740 754 764 762 763 753 745 748 757 761 765 766 769 776 784 778 780 776 781 781 784 782 786 795 784 769 759 763 764 765 759 764 754 747 759 786
661 656 660 675 689 694 702 729 741 758 756 755 757 749 744 748 753 758 763 765 770 779 787 784 791 783 782 785 783 782 788 789 763 756 765 763 768 770 765 762 756 757 760 792
682 681 682 689 696 699 699 726 742 762 757 754 743 739 746 754 755 761 762 768 774 778 792 798 797 784 782 785 784 790 791 780 784 779 800 796 791 776 759 761 756 765 790 812
688 689 693 697 700 705 706 723 728 734 744 748 745 739 742 750 756 759 759 770 766 772 787 785 792 785 779 784 787 782 784 786 795 791 797 800 807 797 781 779 782 774 807 816
694 697 702 705 707 709 712 719 722 728 730 737 738 742 738 742 754 754 759 757 765 767 766 768 782 780 776 773 778 777 784 780 790 790 795 797 807 805 797 796 800 806 810 824
700 703 706 710 712 714 715 718 721 719 732 735 731 734 737 744 749 758 753 757 765 766 766 771 774 776 778 778 778 778 779 784 773 771 794 789 795 812 807 804 801 796 793 822
703 707 710 713 715 716 716 717 717 716 726 721 724 733 738 744 747 751 761 762 761 773 776 779 780 782 781 781 778 779 776 778 777 766 781 774 810 816 815 812 814 813 820 828
709 709 711 715 717 717 718 717 716 712 718 720 730 733 738 746 750 756 762 769 772 774 772 767 767 768 771 772 773 775 778 780 770 765 764 797 807 806 809 806 819 819 818 826
712 714 716 716 715 716 718 716 716 712 716 725 729 737 740 745 751 760 769 774 774 773 766 763 756 758 752 764 771 775 778 777 783 765 763 766 792 807 812 807 800 820 819 820
715 717 718 719 719 718 717 716 716 719 727 742 737 737 743 749 751 754 765 770 772 774 764 759 756 755 760 759 761 770 769 770 770 766 767 786 805 809 810 796 812 821 822 820
716 718 719 719 718 718 716 720 718 719 729 744 745 747 749 754 752 754 767 769 772 771 763 756 760 758 764 766 772 773 770 768 770 773 773 776 810 810 798 812 816 820 823 827
715 717 719 719 719 718 719 722 723 724 730 747 752 754 755 756 757 760 768 763 764 764 761 762 762 767 771 759 775 778 774 778 772 793 793 810 813 811 810 812 817 822 826 832
716 719 721 722 721 721 721 725 727 729 739 748 751 758 761 760 761 762 761 768 768 769 770 766 767 765 763 766 765 778 787 788 789 797 814 813 816 817 817 818 822 826 830 834
719 721 723 723 723 724 727 727 730 733 737 749 763 764 765 766 765 763 763 765 770 771 769 766 764 764 772 767 769 768 778 785 797 809 815 816 818 819 822 825 828 832 836 839
719 721 724 725 726 729 729 731 734 735 738 749 760 765 770 770 769 768 768 769 769 767 766 767 767 770 770 776 777 772 780 786 787 784 803 804 813 821 825 828 831 835 838 843
722 725 727 730 731 731 731 738 741 739 741 748 758 772 772 773 773 772 772 772 773 771 767 769 773 778 773 770 767 783 786 790 793 797 803 808 816 823 826 830 834 838 842 845
725 726 730 732 732 734 737 742 746 743 743 751 763 767 774 774 774 776 776 776 776 772 771 772 771 774 774 775 770 784 788 793 797 802 808 816 819 823 829 834 838 842 845 848
727 730 733 736 739 740 744 745 746 745 746 751 758 770 771 776 773 775 779 776 775 776 776 778 773 778 776 773 777 783 789 795 800 803 804 807 815 823 829 835 839 842 846 850
731 734 738 739 740 745 749 749 748 747 752 754 759 759 768 774 776 778 779 777 776 781 776 775 778 772 774 768 775 781 788 792 796 802 806 812 817 823 829 833 837 840 844 849
734 737 739 746 749 748 749 752 752 754 757 758 760 764 769 770 773 777 778 779 776 775 778 782 778 770 775 776 775 780 787 791 798 801 806 810 815 821 827 830 834 838 841 846
737 742 747 750 750 751 753 758 756 760 759 760 764 762 767 775 770 774 778 776 778 774 776 778 772 767 772 778 779 783 788 793 797 799 803 808 813 818 824 829 834 838 842 845
739 741 748 752 752 754 755 757 761 756 753 762 761 764 767 774 774 771 779 777 781 776 782 783 773 767 776 779 781 786 790 794 798 801 805 810 814 818 823 828 833 837 841 845
740 744 750 750 758 754 750 756 754 754 760 763 764 768 769 774 773 778 775 779 780 784 781 773 767 774 779 780 782 787 792 796 800 803 807 811 815 820 824 828 833 837 841 845
742 744 752 749 753 748 748 744 747 758 758 761 762 769 764 773 776 781 776 788 784 782 779 768 765 778 781 782 785 788 794 798 801 805 809 813 817 822 825 828 832 835 839 843
747 746 749 750 754 755 755 757 758 762 760 760 764 766 765 775 779 779 783 786 776 771 764 765 773 783 784 786 788 793 796 800 803 807 811 815 818 822 825 829 832 835 838 842
750 753 751 755 751 754 756 756 759 762 760 762 760 766 768 773 771 773 772 769 765 765 770 774 779 784 786 787 790 794 798 802 805 808 812 815 819 822 825 829 832 835 838 841
754 756 759 758 755 755 757 758 761 764 762 760 761 763 769 773 770 772 770 768 767 770 775 780 784 786 787 789 792 796 800 803 806 810 813 817 820 823 827 830 833 836 838 841
Wind_Speed
60 64 66 67 62 58 35 7 5 24 24 10 10 11 7 7 13 6 4 6 7 6 6 5 4 5 4 6 2 2 2 2 4 8 6 4 8 11 12 5 4 4 2 3
32 53 63 58 54 39 21 4 4 14 8 7 12 8 11 8 13 10 7 5 3 4 4 3 2 4 4 3 2 0 4 3 4 1 5 4 5 5 11 10 8 7 4 5
30 35 47 39 25 21 18 4 6 3 3 2 15 14 14 8 7 5 6 9 5 7 3 2 5 4 3 3 4 3 5 2 1 2 2 7 10 15 14 10 3 5 4 7
34 43 43 29 23 18 11 2 5 9 11 8 11 11 16 17 8 4 6 3 5 6 5 4 3 3 4 5 5 5 3 4 7 12 9 12 10 12 10 4 4 2 7 6
29 35 37 24 17 8 3 4 7 5 16 15 17 10 16 21 9 8 8 11 11 6 6 3 6 6 5 4 5 3 3 3 5 8 7 5 11 13 8 13 14 13 12 7
24 34 30 16 10 1 2 3 3 6 9 17 15 11 19 16 12 5 6 15 10 7 6 2 1 3 2 1 0 3 2 1 3 4 4 5 2 7 8 11 10 4 4 6
20 20 18 16 9 3 0 2 4 7 10 15 11 16 16 17 7 11 10 8 6 5 3 3 3 4 5 6 5 3 1 1 3 2 6 4 6 7 10 12 9 9 10 9
19 14 12 12 8 4 2 2 2 4 12 12 14 18 18 14 12 13 10 4 4 3 3 4 5 4 5 6 5 5 3 1 3 3 1 6 7 5 3 2 4 4 5 8
16 15 10 6 2 4 4 5 3 5 11 7 18 17 17 13 9 7 4 5 3 1 2 3 6 5 4 5 6 5 4 2 4 4 4 6 6 4 2 3 4 3 1 4
17 14 11 7 5 5 3 6 6 5 7 5 11 9 10 6 5 5 5 5 3 1 4 4 4 4 1 5 5 4 3 2 4 3 2 4 3 2 4 5 4 5 6 5
14 13 10 9 7 4 8 6 7 4 4 6 5 3 5 5 6 7 6 5 2 3 5 4 3 3 2 3 2 2 2 2 3 2 3 4 2 4 4 8 9 9 9 10
13 12 10 9 9 8 8 7 13 14 6 5 9 13 10 6 5 6 4 2 5 2 3 2 3 3 3 4 4 2 3 3 2 4 4 5 6 9 10 9 11 10 11 10
14 12 10 9 9 8 17 12 15 21 8 8 6 7 9 10 8 2 3 2 3 3 2 3 2 3 3 4 3 3 3 2 2 5 4 6 7 7 7 8 10 10 10 10
15 14 12 10 9 11 12 10 7 7 5 5 5 4 5 5 7 10 9 11 5 5 1 2 2 2 2 2 3 2 3 6 6 4 6 7 4 7 10 11 11 11 10 9
15 14 12 12 13 15 21 21 13 7 3 4 6 10 5 5 9 12 11 9 5 3 3 2 2 2 3 2 2 3 5 5 3 2 12 2 12 11 11 11 11 10 10 10
17 16 15 15 17 12 7 4 10 12 17 5 4 2 3 5 10 12 10 6 3 1 2 3 3 2 2 3 2 3 4 4 2 4 11 8 14 12 11 12 11 12 12 12
18 18 17 15 8 5 6 3 2 6 8 4 5 5 3 3 2 3 3 5 3 2 2 2 2 3 2 1 2 8 7 6 8 13 15 13 16 8 13 15 14 14 13 13
21 21 19 19 18 14 9 12 8 7 7 3 4 3 5 1 2 2 2 2 0 3 2 2 1 3 2 3 4 10 9 9 11 13 2 10 14 19 16 17 17 13 11 13
24 23 18 9 7 4 4 7 11 13 6 3 2 7 4 3 2 2 2 1 2 1 1 2 2 2 4 2 11 12 12 11 13 9 11 15 15 15 15 15 13 12 11 13
23 12 5 2 3 12 4 3 2 3 3 2 3 2 4 3 3 2 2 1 2 2 2 1 2 3 0 1 7 10 12 10 14 13 12 13 14 14 14 13 12 12 13 14
4 3 2 7 6 2 3 2 1 1 2 2 3 3 6 1 2 3 1 2 1 2 3 2 1 2 2 5 8 10 11 12 13 9 9 12 13 13 13 11 12 12 13 13
5 13 9 3 2 2 3 2 2 2 3 3 4 5 3 3 1 2 2 2 1 2 2 2 2 1 3 7 10 11 11 12 10 9 11 12 14 15 14 14 13 13 13 14
8 4 3 1 1 3 4 6 3 4 5 4 5 5 2 3 1 3 2 2 2 1 2 2 2 3 4 7 10 11 12 12 12 10 11 12 13 14 15 15 13 15 14 13
2 2 5 1 3 3 2 2 3 3 4 8 6 4 2 2 2 1 3 2 2 2 2 3 2 2 5 8 9 11 11 11 11 12 13 13 15 14 14 15 17 19 16 16
2 1 3 2 2 2 3 3 3 2 6 6 4 3 2 2 3 1 3 3 3 3 2 1 2 3 5 8 8 8 8 9 11 13 13 13 14 14 13 15 16 16 17 16
2 3 2 2 4 4 3 2 3 3 5 2 2 3 2 2 3 3 3 3 3 1 1 1 2 1 5 7 7 8 10 11 11 12 13 14 15 15 15 14 13 15 15 14
2 3 2 2 3 3 2 2 3 5 2 2 2 2 2 3 3 3 2 2 1 1 1 1 2 3 4 6 9 9 11 12 12 13 14 14 13 15 16 14 12 12 12 11
Wind_Direction
127 131 135 136 138 139 137 111 111 164 165 162 192 205 175 129 147 147 136 124 114 151 152 152 131 156 145 152 147 179 153 241 284 297 338 332 262 247 232 245 215 252 300 98
112 130 133 135 140 146 120 86 82 160 173 176 182 174 149 153 158 165 162 135 113 123 140 125 169 173 125 166 211 15 159 180 299 75 162 55 312 282 266 287 292 251 277 96
96 108 126 125 123 135 104 120 128 149 224 252 180 159 157 129 155 126 103 111 109 128 99 26 159 180 147 137 219 203 195 100 289 24 348 310 312 313 267 249 253 115 49 111
140 144 145 126 110 112 91 85 143 164 182 173 183 175 161 154 152 140 139 116 165 146 127 125 142 177 166 164 168 202 185 157 139 138 107 51 10 15 28 76 29 2 119 98
144 151 144 136 122 107 62 132 147 184 155 156 168 159 175 167 135 155 159 151 151 151 128 123 171 168 186 167 155 153 156 150 205 188 199 98 31 21 59 84 91 98 116 96
152 156 158 173 186 130 33 105 79 139 154 171 165 172 163 162 139 65 140 143 138 142 124 106 9 254 250 145 124 115 124 318 213 159 176 188 160 8 51 72 49 135 114 112
139 155 162 173 197 251 323 148 158 143 157 171 168 158 154 150 141 133 130 140 138 108 90 93 116 191 215 220 204 208 152 258 259 156 185 196 118 115 87 78 60 79 106 141
144 169 175 189 205 232 185 180 209 145 153 148 147 147 139 125 120 123 127 94 71 125 152 169 156 146 162 174 172 177 211 306 262 247 112 110 162 175 207 318 79 42 149 163
145 154 169 190 176 139 138 79 88 122 130 156 146 138 145 140 134 129 107 87 80 159 167 200 200 185 161 165 153 160 185 209 245 197 222 212 97 148 225 294 156 36 89 157
150 155 160 146 136 135 121 63 86 102 106 108 158 139 142 136 142 133 141 144 139 278 177 188 190 162 14 178 185 176 206 210 242 194 231 116 75 184 176 241 102 109 83 97
156 153 141 127 104 102 106 67 75 93 93 71 69 107 125 129 163 162 137 140 171 147 185 200 143 164 134 171 77 176 222 219 197 204 209 195 45 168 246 116 124 118 95 91
151 145 135 121 105 93 96 85 81 90 77 90 76 76 62 52 89 130 163 70 128 133 151 179 126 149 194 162 177 141 180 344 12 353 38 91 62 92 119 125 126 122 114 109
147 143 139 131 104 80 113 103 100 97 99 93 88 58 44 63 58 106 147 146 121 150 356 119 108 161 212 174 148 132 137 128 102 184 118 115 105 99 107 116 122 121 120 120
150 146 135 117 98 107 120 94 75 88 101 97 90 62 52 59 57 69 82 111 107 111 173 106 129 137 268 145 96 218 54 154 138 86 133 130 133 121 119 116 116 114 111 113
144 141 135 114 103 110 99 79 57 76 71 121 112 102 47 65 86 81 87 102 113 134 134 132 103 109 173 100 186 174 181 158 195 126 162 235 155 144 137 132 129 124 124 122
144 144 139 131 128 121 105 52 39 84 109 115 103 88 123 99 94 80 70 67 62 68 69 89 99 70 284 197 193 129 140 151 120 137 145 126 139 142 145 138 138 139 135 132
147 139 135 134 115 101 66 86 107 86 87 100 120 124 115 146 91 60 64 53 62 18 94 81 115 140 262 203 227 159 151 131 122 127 119 124 148 151 145 138 134 133 128 131
136 131 120 110 104 87 65 44 65 77 88 70 113 101 153 222 128 111 352 90 122 39 64 155 184 157 242 245 144 151 150 140 146 154 149 154 143 141 141 141 143 142 140 140
131 125 117 99 44 66 103 67 64 64 63 107 115 152 147 158 99 98 119 305 102 52 136 117 252 169 228 246 170 172 169 171 162 144 128 140 149 149 151 154 156 151 149 149
136 125 66 83 69 116 59 29 29 36 25 42 94 128 130 179 163 120 139 358 111 163 90 183 245 255 283 197 181 173 173 171 156 150 156 158 158 161 165 165 160 155 153 149
124 71 73 112 95 68 43 71 61 110 105 85 93 130 133 167 158 121 351 132 118 182 115 254 221 248 159 166 166 165 170 168 182 186 166 175 168 165 164 160 155 150 152 152
125 110 102 80 68 74 97 98 124 208 142 134 142 127 102 121 243 116 166 105 202 146 122 216 245 136 143 173 168 166 165 170 165 160 155 161 166 168 165 160 156 154 148 148
117 85 92 189 37 139 173 161 178 167 164 160 156 124 111 142 126 82 132 152 123 156 208 241 252 106 167 171 167 164 162 163 158 147 148 153 153 157 159 152 151 146 146 150
66 91 119 248 157 188 172 143 116 92 143 145 132 108 116 112 86 111 124 73 204 185 230 219 126 69 191 171 166 164 165 159 156 147 147 144 145 142 143 150 156 154 154 162
85 16 93 125 94 90 95 96 124 113 148 136 121 98 104 90 111 77 123 151 206 229 240 98 74 6 180 167 163 155 154 158 149 152 151 149 148 146 143 155 158 161 163 168
56 50 122 106 139 118 147 137 98 154 149 140 101 118 112 100 122 155 180 179 218 133 198 39 357 360 188 167 159 161 157 158 152 155 156 154 156 157 154 153 161 167 172 173
48 59 30 50 56 66 63 36 114 149 179 101 137 120 89 127 136 153 191 206 64 57 106 14 325 294 191 159 146 147 151 151 155 154 157 156 152 150 150 157 169 169 178 181